DW2128 Weather Reports


Display with metric or nautical units.
time (UTC)temp
F
wind
direction
speed
MPH
gust
MPH
rain 1hr
in
rain 24hr
in
rain mn
in
humidity
%
barometer
mb
20260503013341 63 323 0.0 0.0 0.00 0.00 0.00 62 1009.5
20260503012034 63 294 0.0 0.0 0.00 0.00 0.00 62 1009.5
20260503011822 63 294 0.0 0.0 0.00 0.00 0.00 62 1009.5
20260503010531 63 16 1.0 0.0 0.00 0.00 0.00 62 1009.5
20260503010340 63 16 0.0 0.0 0.00 0.00 0.00 62 1009.4
20260503005035 64 289 0.0 0.0 0.00 0.00 0.00 61 1009.5
20260503004900 64 283 0.0 0.0 0.00 0.00 0.00 59 1009.4
20260503003533 66 15 1.0 0.0 0.00 0.00 0.00 58 1009.4
20260503003358 66 5 1.0 0.0 0.00 0.00 0.00 56 1009.4
20260503002031 69 321 1.0 0.0 0.00 0.00 0.00 53 1009.4
20260503001820 69 40 1.0 0.0 0.00 0.00 0.00 52 1009.5
20260503000558 69 323 0.0 0.0 0.00 0.00 0.00 52 1009.5
20260503000402 69 302 0.0 0.0 0.00 0.00 0.00 52 1009.4
20260502235036 70 316 0.0 0.0 0.00 0.00 0.00 52 1009.4
20260502234839 70 319 0.0 0.0 0.00 0.00 0.00 52 1009.4
20260502233554 69 355 2.0 0.0 0.00 0.00 0.00 52 1009.4
20260502233341 70 28 2.0 0.0 0.00 0.00 0.00 50 1009.4
20260502232035 71 303 1.0 0.0 0.00 0.00 0.00 49 1009.4
20260502231823 71 232 1.0 0.0 0.00 0.00 0.00 50 1009.7
20260502230537 71 22 2.0 0.0 0.00 0.00 0.00 49 1009.7
20260502230322 72 298 1.0 0.0 0.00 0.00 0.00 48 1009.8
20260502225037 71 303 1.0 0.0 0.00 0.00 0.00 49 1009.7
20260502224825 72 267 1.0 0.0 0.00 0.00 0.00 50 1009.9
20260502223521 72 288 1.0 0.0 0.00 0.00 0.00 47 1009.9
20260502223346 73 5 1.0 0.0 0.00 0.00 0.00 50 1010.0
20260502222020 73 22 1.0 0.0 0.00 0.00 0.00 47 1010.0
20260502221828 73 325 0.0 0.0 0.00 0.00 0.00 47 1010.4
20260502220559 73 290 0.0 0.0 0.00 0.00 0.00 48 1010.4
20260502220326 73 282 1.0 0.0 0.00 0.00 0.00 47 1010.4
20260502215020 73 5 1.0 0.0 0.00 0.00 0.00 48 1010.4
20260502214844 73 150 0.0 0.0 0.00 0.00 0.00 48 1010.5
20260502213524 71 38 1.0 0.0 0.00 0.00 0.00 49 1010.5
20260502213334 71 38 1.0 0.0 0.00 0.00 0.00 48 1010.5
20260502212044 71 26 2.0 0.0 0.00 0.00 0.00 50 1010.5
20260502211832 70 26 2.0 0.0 0.00 0.00 0.00 50 1010.9
20260502210528 69 5 0.0 0.0 0.00 0.00 0.00 54 1010.8
20260502210332 69 5 1.0 0.0 0.00 0.00 0.00 52 1011.0
20260502205026 69 5 1.0 0.0 0.00 0.00 0.00 53 1011.0
20260502204834 70 5 1.0 0.0 0.00 0.00 0.00 51 1011.1
20260502203529 69 5 1.0 0.0 0.00 0.00 0.00 54 1011.1
20260502203353 69 5 1.0 0.0 0.00 0.00 0.00 52 1011.4
20260502202032 69 65 0.0 0.0 0.00 0.00 0.00 54 1011.4
20260502201816 68 109 0.0 0.0 0.00 0.00 0.00 53 1011.5
20260502200556 67 110 1.0 0.0 0.00 0.00 0.00 56 1011.5
20260502200325 67 240 1.0 0.0 0.00 0.00 0.00 57 1011.7
20260502195039 66 219 1.0 0.0 0.00 0.00 0.00 60 1011.7
20260502194824 65 219 1.0 0.0 0.00 0.00 0.00 59 1011.9
20260502193538 66 136 1.0 0.0 0.00 0.00 0.00 58 1011.9
20260502193324 66 133 1.0 0.0 0.00 0.00 0.00 59 1012.0
20260502192038 64 5 1.0 0.0 0.00 0.00 0.00 62 1012.0
20260502191828 64 141 1.0 0.0 0.00 0.00 0.00 62 1012.1
20260502190523 63 13 1.0 0.0 0.00 0.00 0.00 64 1012.1
20260502190328 63 13 1.0 0.0 0.00 0.00 0.00 64 1012.2
20260502185043 62 76 0.0 0.0 0.00 0.00 0.00 65 1012.2
20260502184829 62 75 0.0 0.0 0.00 0.00 0.00 66 1012.2
20260502183524 61 75 0.0 0.0 0.00 0.00 0.00 67 1012.2
20260502183336 61 75 1.0 0.0 0.00 0.00 0.00 66 1012.2
20260502182030 61 67 1.0 0.0 0.00 0.00 0.00 67 1012.2
20260502181838 61 65 0.0 0.0 0.00 0.00 0.00 67 1012.3
20260502180532 60 65 1.0 0.0 0.00 0.00 0.00 70 1012.3
20260502180340 60 133 1.0 0.0 0.00 0.00 0.00 69 1012.4
20260502170341 59 38 0.0 0.0 0.00 0.00 0.00 74 1012.2
20260502163554 57 38 0.0 0.0 0.00 0.00 0.00 78 1012.1
20260502163358 57 38 0.0 0.0 0.00 0.00 0.00 78 1012.1
20260502162050 56 42 0.0 0.0 0.00 0.00 0.00 80 1012.1
20260502161838 56 42 0.0 0.0 0.00 0.00 0.00 80 1012.1
20260502160533 56 44 0.0 0.0 0.00 0.00 0.00 81 1012.1
20260502160336 56 44 0.0 0.0 0.00 0.00 0.00 81 1012.0
20260502152033 55 44 0.0 0.0 0.00 0.00 0.00 81 1011.6
20260502151859 55 44 0.0 0.0 0.00 0.00 0.00 82 1011.5
20260502150532 55 44 1.0 0.0 0.00 0.00 0.00 82 1011.5
20260502150338 55 44 1.0 0.0 0.00 0.00 0.00 82 1011.5
20260502130542 56 259 0.0 0.0 0.00 0.00 0.00 81 1011.0
20260502130325 56 259 0.0 0.0 0.00 0.00 0.00 81 1011.0
20260502123557 56 259 0.0 0.0 0.00 0.00 0.00 81 1010.9
20260502123325 56 259 0.0 0.0 0.00 0.00 0.00 81 1010.7
20260502122021 56 259 0.0 0.0 0.00 0.00 0.00 81 1010.7
20260502121826 56 259 0.0 0.0 0.00 0.00 0.00 81 1010.8
20260502120519 56 259 0.0 0.0 0.00 0.00 0.00 80 1010.8
20260502120325 56 259 0.0 0.0 0.00 0.00 0.00 80 1010.9
20260502115025 56 259 0.0 0.0 0.00 0.00 0.00 80 1010.9
20260502114835 56 259 0.0 0.0 0.00 0.00 0.00 80 1010.9
20260502113527 56 259 0.0 0.0 0.00 0.00 0.00 80 1010.9
20260502113335 56 259 0.0 0.0 0.00 0.00 0.00 80 1011.0
20260502112030 56 259 0.0 0.0 0.00 0.00 0.00 80 1011.0
20260502111834 56 259 0.0 0.0 0.00 0.00 0.00 80 1011.0
20260502110528 56 259 0.0 0.0 0.00 0.00 0.00 80 1011.0
20260502110335 56 259 0.0 0.0 0.00 0.00 0.00 80 1011.0
20260502105030 56 259 0.0 0.0 0.00 0.00 0.00 80 1011.0
20260502104835 56 259 0.0 0.0 0.00 0.00 0.00 80 1011.0
20260502103549 56 259 0.0 0.0 0.00 0.00 0.00 80 1011.0
20260502103333 56 259 0.0 0.0 0.00 0.00 0.00 80 1011.1
20260502102047 56 259 0.0 0.0 0.00 0.00 0.00 79 1011.1
20260502101835 56 259 0.0 0.0 0.00 0.00 0.00 79 1011.3
20260502100529 56 259 0.0 0.0 0.00 0.00 0.00 79 1011.3
20260502100336 56 259 0.0 0.0 0.00 0.00 0.00 79 1011.4
20260502090552 56 259 0.0 0.0 0.00 0.00 0.00 79 1011.7
20260502090335 56 259 0.0 0.0 0.00 0.00 0.00 79 1012.0
20260502070541 57 259 0.0 0.0 0.00 0.00 0.00 79 1012.5
20260502070323 57 259 0.0 0.0 0.00 0.00 0.00 79 1012.5
20260502065038 57 258 0.0 0.0 0.00 0.00 0.00 79 1012.5
20260502064824 57 258 0.0 0.0 0.00 0.00 0.00 79 1012.5
20260502063522 57 257 0.0 0.0 0.00 0.00 0.00 79 1012.5
20260502063331 57 257 0.0 0.0 0.00 0.00 0.00 79 1012.5
20260502062046 57 257 0.0 0.0 0.00 0.00 0.00 78 1012.5
20260502061850 57 257 0.0 0.0 0.00 0.00 0.00 78 1012.6
20260502060523 57 257 0.0 0.0 0.00 0.00 0.00 77 1012.6
20260502060335 57 257 0.0 0.0 0.00 0.00 0.00 77 1012.7
20260502055028 57 257 0.0 0.0 0.00 0.00 0.00 77 1012.7
20260502054833 57 257 0.0 0.0 0.00 0.00 0.00 77 1012.6
20260502053528 57 257 0.0 0.0 0.00 0.00 0.00 78 1012.6
20260502053332 57 257 0.0 0.0 0.00 0.00 0.00 78 1012.6
20260502052050 57 257 0.0 0.0 0.00 0.00 0.00 77 1012.6
20260502051839 57 257 0.0 0.0 0.00 0.00 0.00 77 1012.6
20260502050534 57 257 0.0 0.0 0.00 0.00 0.00 77 1012.6
20260502050321 57 257 0.0 0.0 0.00 0.00 0.00 76 1012.5
20260502045021 58 257 0.0 0.0 0.00 0.00 0.00 76 1012.5
20260502044826 58 256 0.0 0.0 0.00 0.00 0.00 76 1012.4
20260502043520 58 257 0.0 0.0 0.00 0.00 0.00 76 1012.4
20260502043329 58 257 0.0 0.0 0.00 0.00 0.00 76 1012.2
20260502042044 58 257 0.0 0.0 0.00 0.00 0.00 75 1012.2
20260502041827 58 257 0.0 0.0 0.00 0.00 0.00 75 1012.1
20260502040522 59 257 0.0 0.0 0.00 0.00 0.00 74 1012.1
20260502040326 59 257 0.0 0.0 0.00 0.00 0.00 74 1011.9
20260502035020 59 256 0.0 0.0 0.00 0.00 0.00 73 1011.9
20260502034828 59 257 0.0 0.0 0.00 0.00 0.00 73 1011.9
20260502033523 60 257 0.0 0.0 0.00 0.00 0.00 72 1011.9
20260502033326 60 257 0.0 0.0 0.00 0.00 0.00 72 1011.6
20260502032041 60 257 0.0 0.0 0.00 0.00 0.00 70 1011.6
20260502031825 61 257 0.0 0.0 0.00 0.00 0.00 70 1011.6
20260502030519 62 256 0.0 0.0 0.00 0.00 0.00 68 1011.6
20260502030329 62 256 0.0 0.0 0.00 0.00 0.00 67 1011.5
20260502025024 63 256 0.0 0.0 0.00 0.00 0.00 66 1011.5
20260502024851 63 256 0.0 0.0 0.00 0.00 0.00 65 1011.2
20260502023545 65 254 0.0 0.0 0.00 0.00 0.00 61 1011.2
20260502023328 65 254 0.0 0.0 0.00 0.00 0.00 61 1011.0
20260502022021 67 254 0.0 0.0 0.00 0.00 0.00 57 1011.0
20260502021829 67 254 0.0 0.0 0.00 0.00 0.00 57 1011.0
20260502020544 69 254 0.0 0.0 0.00 0.00 0.00 54 1011.0
20260502020327 69 254 0.0 0.0 0.00 0.00 0.00 55 1011.0
20260502015023 70 252 0.0 0.0 0.00 0.00 0.00 55 1011.0
20260502014827 70 252 1.0 0.0 0.00 0.00 0.00 54 1010.9
20260502013521 72 257 0.0 0.0 0.00 0.00 0.00 52 1011.0